Temp
10 11 11 11 12 12 13 13 14 13 13 14 14 14 15 15 16 17 17 17 18 18 19 20 21 21 23 24 25 23 22 22 22 22 23 24 26 26 28 28 27 28 29 28 27 27 27
10 10 11 11 11 12 12 13 13 13 13 13 14 14 15 15 16 16 17 17 18 18 19 20 20 21 21 24 23 23 22 21 21 22 23 24 25 25 26 27 27 27 27 28 27 28 27
9 10 10 12 11 12 12 13 12 13 13 13 13 14 14 15 15 16 16 17 18 18 19 20 20 21 20 23 22 21 21 21 22 22 23 23 23 24 25 26 25 26 27 28 28 27 27
8 9 9 11 11 12 12 12 12 12 13 13 13 13 13 14 15 15 16 17 18 18 19 19 20 20 21 22 21 21 22 22 21 22 22 22 22 23 24 25 26 27 28 27 27 28 27
7 8 9 10 10 11 11 11 11 11 12 12 13 13 13 14 14 15 16 17 17 18 18 19 19 19 22 21 21 21 21 23 22 22 21 21 22 25 25 26 27 27 27 28 27 27 28
7 7 8 9 10 11 10 11 11 11 12 12 12 13 13 13 14 15 15 17 17 18 18 19 19 19 21 23 21 21 21 22 22 22 23 23 24 26 27 27 27 28 28 27 28 27 27
6 7 7 8 9 10 10 11 11 11 11 11 12 12 12 13 14 14 16 17 18 18 17 19 20 21 21 20 19 21 21 22 22 23 25 24 25 25 27 27 26 27 27 27 27 26 26
5 5 6 7 7 9 10 11 10 10 11 11 11 11 12 13 14 14 15 17 15 14 17 19 19 19 19 19 20 21 21 22 23 24 25 24 24 27 26 25 25 26 26 27 26 26 25
4 5 5 6 7 8 9 9 10 11 11 11 11 11 12 12 13 13 15 15 14 15 17 20 20 20 20 19 20 22 21 22 24 24 25 24 26 26 24 24 24 25 26 27 26 26 26
3 4 4 5 6 7 8 9 10 10 10 10 10 11 11 11 12 14 14 13 15 16 18 22 20 20 19 19 21 21 22 23 23 23 25 24 26 24 24 25 25 26 26 26 25 25 25
3 4 4 5 6 7 7 8 10 9 10 10 10 10 10 11 13 13 14 14 15 14 17 23 22 19 19 20 22 21 22 22 23 23 24 24 24 23 24 25 26 25 25 25 25 25 25
2 3 2 4 5 6 7 8 9 9 10 10 9 9 9 11 11 13 13 14 15 17 16 21 21 20 20 20 21 21 20 21 22 24 24 24 25 25 25 26 25 25 24 24 25 25 23
2 2 2 3 5 6 7 8 8 9 10 9 9 9 9 10 11 12 13 13 16 15 21 21 21 22 21 22 22 22 22 21 22 21 22 23 24 24 24 24 24 24 24 22 22 23 23
2 1 1 2 3 6 7 7 7 8 9 8 8 8 8 10 11 11 12 13 12 17 19 22 22 22 21 23 22 22 22 22 23 23 23 22 22 24 24 24 24 24 24 23 21 22 24
1 1 1 3 3 5 7 7 7 8 9 9 8 7 8 9 10 11 11 9 10 14 20 20 21 20 21 22 22 22 22 23 24 24 22 23 23 25 25 24 25 24 23 25 23 23 22
2 1 1 2 2 4 5 6 7 9 8 8 8 7 7 8 9 9 9 9 11 15 19 21 19 21 20 21 20 22 22 23 23 23 24 23 22 23 23 23 24 23 25 22 22 20 20
1 1 1 2 2 4 5 6 6 8 7 8 8 7 7 8 8 8 9 10 13 15 17 18 19 17 20 20 21 22 22 21 21 22 22 23 21 21 22 22 23 22 23 23 23 23 20
0 0 1 2 2 3 6 6 6 7 7 8 7 8 7 7 7 8 10 11 13 15 16 17 18 20 20 20 20 21 21 21 19 21 21 22 22 20 22 23 23 24 23 23 20 20 21
0 0 1 1 2 3 5 5 6 7 7 7 8 8 7 8 7 8 10 11 14 15 16 17 18 19 20 20 19 20 20 17 17 20 21 21 21 18 19 21 22 22 23 23 23 21 20
0 0 1 1 2 3 4 5 5 6 8 7 7 7 7 6 8 10 10 11 12 15 16 17 18 18 18 18 19 18 18 18 17 19 16 17 21 20 19 20 22 21 21 22 22 19 20
1 1 1 1 1 2 3 5 5 6 7 7 8 8 9 7 7 9 11 12 12 14 15 17 17 18 19 17 18 18 20 18 18 16 18 20 20 20 19 19 20 20 21 21 21 21 20
0 0 1 1 1 1 2 4 5 6 7 7 7 7 8 10 10 9 10 11 13 15 16 16 16 17 18 18 19 18 19 19 19 18 19 19 18 19 9 19 19 19 20 20 20 21 21
-0 0 0 1 1 1 2 3 5 6 6 6 7 9 9 10 10 9 10 12 13 14 16 16 17 16 17 17 18 17 17 18 18 18 18 18 18 17 17 18 18 17 19 20 20 21 20
-1 -0 0 0 1 1 1 3 4 6 6 6 7 9 7 8 10 11 12 13 13 14 14 15 15 15 14 15 14 15 15 16 17 18 18 18 18 17 16 17 14 19 19 20 19 20 21
0 -0 -0 0 1 1 1 2 3 5 6 6 7 8 8 7 10 12 12 12 13 14 13 13 12 13 13 13 15 14 14 14 15 17 17 18 18 15 15 16 18 19 18 18 18 19 20
-0 -0 -0 0 1 1 1 1 2 3 5 6 6 7 8 7 8 11 11 12 10 9 8 12 10 11 12 13 14 13 13 15 14 14 14 16 16 14 14 14 15 19 19 18 18 17 20
0 0 0 -0 0 1 1 2 2 3 5 5 6 6 7 7 8 8 10 11 11 9 9 9 9 9 11 12 13 14 15 17 15 14 12 13 13 12 13 13 15 19 18 17 15 17 17
0 0 0 -1 0 1 1 1 1 2 4 5 6 6 6 6 6 8 8 10 11 11 10 8 8 8 10 11 13 13 15 16 16 17 15 14 13 13 14 12 12 18 18 15 18 16 16
0 0 -0 -0 -0 0 1 1 1 1 3 5 5 5 5 6 5 7 8 9 10 12 12 10 12 10 11 12 14 14 14 16 15 14 17 15 16 15 16 16 17 17 17 16 16 16 17
Height
1541 1543 1545 1548 1550 1551 1552 1554 1556 1557 1560 1560 1560 1561 1561 1561 1560 1559 1558 1556 1555 1554 1552 1551 1549 1548 1546 1546 1542 1540 1540 1540 1539 1540 1540 1539 1536 1534 1527 1528 1528 1523 1520 1524 1523 1525 1524
1536 1538 1540 1543 1546 1549 1550 1549 1552 1555 1558 1558 1559 1559 1560 1560 1560 1558 1557 1556 1554 1553 1552 1550 1548 1547 1548 1546 1541 1540 1540 1540 1540 1541 1540 1539 1537 1536 1532 1529 1528 1526 1524 1521 1523 1522 1524
1528 1532 1534 1538 1541 1544 1545 1547 1552 1553 1553 1556 1557 1557 1558 1558 1559 1557 1555 1554 1553 1552 1550 1549 1548 1546 1546 1543 1540 1539 1539 1540 1540 1540 1540 1539 1538 1536 1534 1529 1530 1527 1524 1520 1520 1520 1521
1521 1524 1528 1531 1536 1538 1541 1544 1548 1549 1551 1554 1555 1555 1556 1557 1557 1556 1554 1553 1552 1551 1549 1548 1547 1545 1542 1538 1538 1538 1539 1538 1538 1539 1538 1537 1537 1535 1533 1530 1528 1523 1519 1518 1517 1518 1521
1514 1517 1519 1524 1528 1532 1536 1539 1542 1545 1547 1550 1552 1552 1554 1556 1556 1554 1552 1551 1551 1549 1548 1547 1546 1546 1540 1535 1536 1536 1536 1537 1537 1537 1537 1535 1535 1532 1531 1525 1519 1516 1517 1513 1516 1518 1515
1508 1510 1513 1516 1522 1526 1529 1533 1537 1540 1544 1546 1548 1550 1551 1555 1554 1553 1551 1550 1549 1547 1546 1545 1543 1546 1536 1535 1535 1534 1534 1536 1536 1536 1536 1535 1531 1527 1521 1521 1524 1508 1512 1513 1512 1515 1515
1500 1503 1506 1508 1513 1519 1523 1527 1531 1535 1539 1542 1545 1547 1550 1552 1553 1551 1552 1551 1549 1545 1543 1541 1538 1536 1535 1535 1533 1533 1533 1534 1534 1534 1530 1531 1529 1523 1512 1514 1516 1513 1512 1511 1510 1521 1519
1493 1496 1499 1501 1505 1509 1515 1519 1524 1530 1534 1538 1541 1544 1547 1549 1551 1552 1551 1549 1551 1551 1542 1538 1535 1534 1532 1534 1533 1531 1533 1534 1532 1529 1526 1531 1526 1511 1517 1521 1521 1517 1517 1514 1516 1522 1524
1485 1488 1490 1492 1495 1499 1506 1511 1517 1523 1529 1532 1536 1540 1542 1548 1549 1550 1550 1551 1549 1548 1543 1530 1527 1527 1528 1530 1527 1526 1530 1528 1526 1526 1523 1526 1514 1516 1522 1522 1522 1518 1516 1511 1519 1518 1519
1476 1479 1481 1482 1486 1491 1496 1502 1509 1516 1523 1528 1530 1535 1539 1546 1549 1546 1548 1548 1548 1547 1538 1519 1520 1518 1522 1525 1520 1520 1523 1526 1524 1523 1520 1520 1515 1520 1521 1519 1517 1515 1512 1515 1518 1523 1520
1466 1469 1472 1474 1477 1482 1487 1492 1499 1508 1514 1520 1525 1529 1536 1540 1544 1544 1546 1546 1545 1546 1545 1502 1506 1514 1517 1518 1511 1512 1517 1521 1517 1518 1519 1519 1515 1521 1519 1515 1513 1514 1514 1518 1517 1518 1515
1456 1459 1462 1463 1468 1474 1477 1482 1487 1497 1505 1513 1519 1523 1531 1534 1540 1542 1541 1545 1546 1544 1536 1505 1504 1510 1513 1512 1511 1511 1515 1518 1518 1515 1515 1514 1512 1513 1513 1512 1513 1514 1520 1520 1518 1518 1528
1448 1449 1450 1452 1457 1463 1468 1473 1478 1485 1495 1505 1511 1518 1526 1533 1535 1535 1540 1545 1545 1535 1507 1503 1499 1502 1504 1501 1506 1508 1509 1512 1511 1521 1517 1514 1509 1513 1512 1515 1515 1518 1519 1530 1533 1527 1525
1439 1439 1441 1445 1449 1453 1459 1463 1470 1474 1485 1496 1503 1514 1518 1524 1527 1533 1537 1545 1542 1507 1508 1492 1496 1495 1499 1495 1499 1501 1499 1502 1503 1501 1502 1512 1514 1506 1510 1507 1511 1514 1512 1520 1537 1524 1513
1432 1432 1433 1433 1439 1443 1449 1453 1460 1467 1478 1487 1497 1504 1509 1515 1521 1528 1535 1541 1524 1517 1500 1499 1500 1498 1495 1491 1497 1497 1497 1495 1492 1495 1506 1499 1500 1491 1502 1507 1507 1507 1516 1503 1514 1513 1520
1422 1422 1422 1428 1430 1434 1435 1443 1451 1459 1471 1479 1484 1497 1500 1508 1515 1523 1530 1521 1515 1509 1502 1492 1501 1492 1496 1490 1498 1494 1494 1489 1490 1495 1497 1493 1504 1499 1505 1508 1505 1507 1501 1521 1518 1536 1536
1415 1416 1418 1420 1423 1426 1432 1437 1447 1455 1466 1473 1482 1488 1489 1500 1511 1514 1507 1508 1507 1505 1504 1501 1496 1503 1490 1490 1489 1489 1489 1497 1498 1500 1501 1493 1502 1508 1507 1505 1502 1509 1504 1508 1507 1509 1528
1409 1410 1411 1410 1415 1417 1418 1428 1437 1448 1456 1466 1472 1474 1478 1488 1506 1500 1498 1500 1501 1501 1502 1501 1498 1490 1487 1489 1490 1488 1492 1493 1503 1502 1502 1497 1496 1509 1505 1498 1500 1495 1500 1504 1521 1523 1519
1403 1402 1404 1401 1405 1409 1416 1424 1431 1440 1446 1453 1460 1466 1473 1477 1491 1491 1492 1495 1496 1497 1497 1498 1494 1491 1490 1491 1496 1493 1493 1506 1505 1503 1499 1500 1501 1519 1514 1507 1502 1502 1501 1500 1504 1514 1522
1397 1396 1397 1401 1402 1406 1410 1418 1425 1432 1437 1451 1450 1458 1465 1471 1477 1485 1487 1487 1492 1492 1492 1493 1491 1495 1492 1494 1493 1498 1499 1505 1506 1505 1507 1506 1499 1504 1512 1506 1497 1506 1505 1503 1507 1522 1522
1391 1393 1394 1393 1395 1395 1400 1405 1418 1424 1435 1437 1437 1441 1444 1452 1467 1475 1479 1480 1485 1484 1489 1490 1491 1489 1487 1494 1494 1497 1493 1503 1505 1508 1506 1503 1504 1502 1507 1509 1504 1506 1505 1505 1510 1509 1516
1389 1390 1389 1388 1389 1393 1395 1394 1402 1416 1427 1433 1426 1433 1441 1443 1458 1472 1471 1471 1473 1477 1479 1484 1485 1488 1488 1491 1491 1494 1494 1496 1497 1504 1502 1504 1509 1507 1537 1510 1509 1512 1508 1509 1508 1506 1506
1383 1383 1385 1387 1387 1389 1393 1396 1402 1409 1418 1416 1424 1428 1436 1442 1452 1459 1456 1458 1464 1474 1475 1478 1483 1490 1493 1494 1495 1495 1497 1496 1499 1500 1503 1505 1507 1512 1517 1510 1512 1519 1508 1505 1502 1500 1504
1380 1378 1374 1374 1383 1384 1386 1391 1392 1399 1408 1414 1422 1423 1436 1437 1441 1441 1452 1456 1460 1466 1472 1476 1481 1486 1495 1497 1500 1503 1505 1501 1503 1503 1502 1504 1505 1510 1518 1515 1533 1501 1501 1500 1502 1498 1496
1376 1377 1377 1376 1375 1380 1380 1380 1382 1394 1404 1411 1416 1423 1431 1432 1432 1441 1446 1452 1459 1463 1466 1476 1482 1486 1490 1500 1500 1504 1506 1507 1504 1504 1506 1504 1504 1517 1520 1514 1503 1497 1500 1503 1504 1500 1498
1373 1374 1374 1374 1373 1375 1379 1381 1381 1386 1399 1407 1415 1420 1424 1431 1432 1434 1439 1444 1451 1461 1466 1472 1481 1486 1494 1497 1495 1500 1502 1497 1503 1507 1510 1507 1507 1516 1521 1518 1515 1493 1497 1500 1503 1505 1494
1365 1368 1369 1368 1370 1372 1371 1375 1376 1384 1391 1400 1408 1415 1422 1429 1431 1435 1432 1434 1446 1456 1466 1473 1479 1486 1492 1491 1493 1491 1487 1483 1493 1499 1509 1511 1514 1518 1515 1518 1506 1493 1500 1504 1513 1505 1501
1361 1361 1366 1367 1366 1369 1371 1372 1376 1383 1388 1397 1400 1411 1422 1426 1430 1431 1430 1434 1440 1448 1458 1469 1478 1484 1489 1489 1488 1485 1484 1481 1483 1483 1492 1499 1509 1512 1510 1517 1517 1493 1498 1506 1497 1499 1502
1358 1361 1360 1361 1362 1366 1369 1372 1378 1383 1383 1390 1398 1408 1416 1427 1429 1430 1431 1432 1435 1445 1449 1459 1463 1471 1476 1480 1478 1480 1481 1476 1481 1487 1482 1494 1490 1496 1495 1492 1490 1490 1493 1495 1497 1499 1500
Wind_Speed
30 29 29 29 29 26 25 23 21 19 17 16 14 14 14 14 13 13 13 14 14 15 14 14 14 13 8 7 3 6 6 6 7 5 6 6 6 8 8 8 7 9 1 4 4 7 8
30 32 32 30 30 29 28 24 22 21 20 17 16 14 15 15 14 13 14 14 14 15 16 15 15 13 8 13 8 9 5 3 3 4 5 5 4 6 6 7 9 3 6 7 4 7 6
30 39 35 34 33 32 29 26 25 23 20 20 17 15 15 16 15 14 14 14 15 15 15 16 15 14 10 12 6 7 9 5 4 3 4 3 3 5 5 8 4 7 11 8 3 3 2
33 31 40 39 37 35 32 29 28 24 21 20 18 16 15 17 16 14 14 14 14 15 16 15 13 11 10 13 9 8 7 7 8 6 4 3 3 3 7 3 9 12 11 11 8 5 7
36 34 32 38 41 39 34 31 30 26 23 21 20 17 16 16 16 14 12 12 13 14 15 14 10 6 14 8 4 6 5 7 7 6 5 4 4 8 6 11 9 8 12 8 9 2 3
38 37 35 34 48 44 39 39 40 37 31 26 21 19 15 16 15 11 10 10 12 14 15 12 13 8 13 4 4 5 5 7 6 6 7 7 7 9 9 8 10 4 8 4 6 6 4
37 39 38 37 34 53 46 43 38 37 33 29 26 23 17 16 11 6 8 9 13 8 5 12 11 12 7 5 7 7 8 7 7 10 11 8 8 11 12 1 9 7 8 7 8 3 7
42 38 40 39 41 41 50 45 41 37 33 30 26 22 17 15 9 5 5 5 3 5 12 14 18 19 20 13 7 11 10 10 12 13 9 6 12 9 1 4 7 7 8 8 7 2 8
44 43 40 43 39 41 49 49 45 41 37 32 28 23 19 15 10 5 3 3 2 6 10 20 20 19 19 17 18 18 16 18 12 13 11 15 7 6 8 8 10 10 11 8 8 8 11
39 44 43 42 44 43 49 50 49 44 41 33 32 27 22 13 9 8 8 3 3 7 7 14 10 10 15 12 11 24 21 18 13 14 14 12 9 10 12 11 10 12 9 4 5 9 10
40 50 42 41 44 43 47 51 51 48 44 37 34 30 25 20 6 11 8 5 2 2 7 1 12 7 7 16 3 12 24 22 18 15 11 14 12 12 14 13 9 2 3 7 9 10 13
41 46 44 39 44 45 43 46 45 54 48 40 36 31 26 22 17 11 10 7 3 7 14 6 7 10 13 17 12 7 14 23 18 17 14 19 5 11 15 12 8 2 7 8 9 10 11
37 40 41 46 35 45 45 48 40 55 51 44 38 34 32 22 19 18 15 7 7 12 2 14 15 11 15 14 17 14 14 18 15 15 18 16 16 15 8 10 11 11 12 7 9 9 10
38 39 40 42 39 47 40 48 41 50 50 48 47 40 34 30 27 22 18 2 15 8 25 6 5 12 19 16 16 16 14 16 21 19 13 18 17 20 15 17 12 15 14 8 9 5 6
37 39 38 29 44 45 42 46 44 41 45 40 46 38 37 35 30 27 20 9 7 12 14 22 15 16 17 13 7 13 16 16 15 17 16 13 15 13 9 17 17 14 15 13 10 6 7
34 35 34 38 39 39 37 46 42 44 42 41 43 37 30 35 30 28 13 15 10 21 11 15 17 16 18 17 13 14 14 9 10 11 8 6 8 10 10 9 11 11 10 7 7 6 9
30 32 34 30 37 27 40 46 45 51 43 42 41 20 20 36 32 22 11 8 13 20 21 10 18 8 11 12 15 15 14 6 2 12 11 8 6 8 11 12 13 10 12 10 5 7 4
29 30 28 28 35 33 35 41 45 47 50 52 31 7 26 41 16 6 12 7 14 17 18 11 12 18 10 8 10 11 9 4 4 3 12 6 5 10 13 5 6 12 10 15 6 7 6
24 26 24 27 31 31 33 42 46 47 49 46 20 10 34 47 10 9 5 12 19 19 18 13 12 8 6 10 6 6 6 3 4 7 2 6 6 7 6 7 6 8 8 9 5 3 8
22 24 24 23 25 33 31 41 48 49 46 48 15 5 14 29 23 21 15 15 15 26 22 15 9 12 12 9 1 7 9 5 4 4 1 1 4 8 5 3 7 16 8 9 10 7 10
19 22 24 25 23 18 33 38 48 48 50 43 18 6 11 9 19 18 18 16 20 14 22 19 11 14 12 10 11 6 8 9 8 6 4 4 8 4 6 1 3 2 5 9 12 11 12
19 22 21 22 28 21 25 29 46 49 47 50 13 6 15 12 29 27 19 18 26 24 23 23 11 11 9 7 11 9 10 8 8 7 5 3 3 4 3 2 4 8 11 11 14 14 15
18 20 19 22 27 22 26 29 46 52 49 22 18 22 19 17 19 18 21 24 26 22 19 27 18 14 10 6 4 5 2 2 2 7 8 6 5 5 9 6 6 9 15 17 18 16 13
16 16 18 20 21 22 21 26 31 51 50 28 29 27 8 8 15 23 24 25 25 27 16 18 22 15 5 5 9 6 2 3 6 6 5 7 9 4 4 4 6 3 2 5 7 10 8
17 15 15 21 26 23 24 25 7 44 49 46 25 23 13 2 22 23 23 23 27 28 17 20 15 11 15 6 7 5 4 3 7 8 8 8 7 3 4 9 9 7 9 5 6 8 7
18 17 18 20 21 20 21 25 32 20 53 49 32 32 19 4 6 24 21 33 9 7 1 17 13 19 20 9 7 7 7 8 9 8 7 6 6 6 5 5 6 3 6 6 2 10 8
20 17 17 18 18 18 19 22 25 24 41 50 44 35 23 8 9 13 19 23 21 12 5 11 12 8 15 7 8 9 10 13 9 11 10 8 6 8 8 4 5 2 11 4 3 1 10
20 18 18 19 14 15 16 21 27 28 24 39 38 42 38 13 12 22 19 34 27 25 10 16 8 4 8 10 7 5 5 8 7 11 13 12 10 7 9 6 9 15 14 6 3 7 8
19 20 19 19 14 13 13 18 31 32 28 35 30 41 41 27 11 21 16 27 16 31 24 33 12 24 14 8 7 5 5 7 11 8 13 11 8 8 9 7 3 16 9 18 8 7 8
Wind_Direction
244 243 242 242 241 237 235 234 236 239 243 248 253 261 270 275 281 290 298 303 308 310 311 311 315 322 326 265 285 287 301 324 4 351 4 349 327 317 304 325 294 260 138 262 248 272 255
239 243 242 240 243 242 239 236 235 240 244 247 251 258 265 272 277 281 288 295 302 305 308 310 312 317 316 272 271 275 284 319 325 344 351 348 336 318 303 289 289 19 268 257 251 274 252
241 240 241 238 236 238 237 238 239 235 240 250 249 256 267 270 272 279 284 286 291 298 302 307 312 318 293 268 263 281 277 268 261 286 303 318 314 286 345 266 255 254 240 195 206 173 196
245 243 239 238 233 233 235 233 237 238 237 246 249 255 264 273 273 276 281 284 287 291 296 301 305 317 280 268 261 271 262 259 263 260 264 275 287 265 244 260 237 240 246 211 137 212 157
250 252 241 240 233 228 229 233 232 236 235 241 248 251 260 271 275 277 278 280 289 296 297 300 305 290 273 275 272 251 242 243 222 230 246 247 253 269 227 238 228 203 264 210 140 264 212
251 248 251 240 234 230 229 232 238 242 242 238 248 251 254 261 268 275 278 284 293 298 294 288 268 268 237 253 249 236 225 204 219 220 220 237 246 248 220 247 257 280 233 227 247 122 218
253 247 248 248 237 232 232 233 232 232 233 234 231 239 242 250 260 277 295 306 271 239 237 256 300 264 274 296 262 239 212 203 216 223 241 207 259 236 269 216 327 307 286 248 102 81 282
257 250 245 247 242 235 228 228 228 229 228 226 227 228 232 238 244 246 316 300 332 311 297 263 261 258 255 262 274 228 208 213 212 232 201 225 240 253 70 231 248 249 240 221 97 205 270
261 253 248 243 243 236 230 228 228 227 226 226 223 222 222 225 232 221 234 224 314 337 271 276 248 245 246 225 236 240 209 215 223 233 218 251 344 113 209 211 233 232 244 230 257 172 242
263 253 248 244 241 238 230 229 227 226 224 221 220 217 215 219 227 213 226 192 311 337 268 260 209 244 209 214 242 228 218 221 225 247 233 254 227 207 216 240 226 245 213 287 210 237 257
261 253 251 244 239 238 231 229 231 223 219 217 220 215 216 211 229 198 185 177 111 296 278 290 141 149 188 203 93 209 211 216 230 218 227 237 209 208 221 229 209 289 160 227 242 245 274
259 255 249 239 236 234 233 228 233 219 216 217 219 215 212 203 202 201 178 151 107 237 245 230 154 195 199 215 229 140 198 222 226 242 213 255 209 212 225 224 221 185 218 227 244 252 250
258 261 248 248 231 230 232 226 225 216 213 210 212 213 210 201 200 201 169 174 244 234 184 254 222 207 219 211 222 199 192 195 206 215 229 227 223 227 241 198 192 211 220 220 214 218 239
256 260 250 250 244 221 230 224 217 209 209 219 211 204 204 205 193 180 166 162 229 233 234 290 331 219 228 216 214 207 205 210 210 219 232 221 231 210 191 226 189 214 219 232 236 255 182
250 254 249 245 240 227 224 220 217 205 211 218 199 197 205 205 199 195 173 210 226 218 239 226 238 237 221 204 255 204 220 219 204 218 230 250 223 182 215 211 239 217 223 241 282 275 290
252 254 252 246 234 238 232 218 215 202 214 202 188 192 202 199 193 191 186 218 201 222 260 224 226 221 219 199 202 200 197 209 171 206 231 260 178 184 176 223 221 263 203 204 237 250 232
248 252 247 244 228 231 227 212 208 211 214 198 189 186 206 202 194 196 208 214 210 220 236 243 234 260 220 234 195 200 193 130 178 188 231 276 155 169 178 208 181 197 219 220 255 236 246
253 248 244 249 228 233 216 210 202 201 198 194 187 192 180 185 171 205 207 205 200 210 217 243 268 224 213 204 210 206 191 79 152 264 201 215 255 180 202 93 306 196 203 202 220 215 222
264 252 250 260 234 231 217 213 204 203 196 188 193 159 177 179 183 209 203 215 205 197 203 206 215 212 219 192 180 189 136 122 176 202 290 161 235 150 192 185 199 227 212 228 213 283 218
264 256 256 254 231 231 221 213 202 200 197 194 173 147 164 178 191 199 190 190 202 210 200 209 203 198 176 167 256 171 150 146 142 133 39 262 243 210 267 356 229 208 202 223 225 216 239
263 258 257 256 233 236 230 216 208 199 197 187 180 187 182 174 192 202 194 177 189 187 205 198 189 216 191 181 193 189 155 147 152 157 181 246 222 252 136 144 341 231 223 211 241 243 245
262 252 257 250 248 243 232 226 197 199 195 203 166 154 173 160 189 200 194 195 189 191 188 195 191 201 197 195 203 193 190 193 176 173 174 185 201 182 297 245 265 260 250 248 252 257 266
265 249 255 234 227 238 228 220 211 197 195 198 211 183 177 195 185 185 198 193 197 185 206 199 197 185 199 178 219 60 1 311 148 187 187 200 179 211 242 209 257 264 245 247 251 245 248
269 256 264 250 227 237 240 220 211 196 197 194 206 178 174 181 191 195 187 195 189 195 171 190 188 167 128 116 116 113 88 151 195 209 229 197 209 186 241 168 240 243 285 304 292 284 265
255 263 267 243 239 245 242 219 261 198 202 201 206 172 191 225 193 202 187 196 195 195 174 170 174 185 165 181 177 170 190 201 213 214 202 228 203 189 205 221 264 245 200 204 211 246 207
248 252 257 241 223 232 231 239 234 206 203 206 203 192 185 127 223 183 184 185 161 139 111 145 131 153 170 195 192 194 184 193 183 171 250 176 262 181 191 221 230 102 116 162 164 260 207
252 253 249 255 217 227 236 233 235 226 204 206 208 192 185 169 252 218 192 183 175 151 124 143 144 146 178 188 197 202 213 192 177 186 183 183 195 213 212 236 267 211 157 146 235 198 158
247 250 246 258 216 220 232 223 223 215 196 209 203 208 203 189 193 212 213 181 171 163 167 156 115 173 182 190 196 183 224 198 213 197 176 187 191 202 220 204 244 209 163 207 115 142 181
239 237 242 252 220 213 236 227 216 229 201 195 180 185 192 192 197 194 188 196 202 185 168 166 174 168 170 180 202 190 193 196 209 208 175 206 205 200 198 212 162 173 177 217 249 251 210